AirNav   Phillips 66 Aviation Fuel
 
 1569 users online  

32WN Bowman Airstrip Ultralight Flightpark
Suring, Wisconsin, USA


FAA INFORMATION EFFECTIVE 14 SEPTEMBER 2017

Location

FAA Identifier: 32WN
Lat/Long: 45-05-58.5800N / 088-25-11.0400W
45-05.976333N / 088-25.184000W
45.0996056 / -88.4197333
(estimated)
Elevation: 840 ft. / 256 m (estimated)
From city: 7 miles S of SURING, WI
Time zone: UTC -5 (UTC -6 during Standard Time)
Zip code: 54174

Ultralight Flight Park Operations

Ultralight Flight Park use: Private use. Permission required prior to landing
Activation date: 07/2009
Control tower: no
ARTCC: MINNEAPOLIS CENTER
FSS: GREEN BAY FLIGHT SERVICE STATION
Attendance: UNATNDD
Wind indicator: yes
Segmented circle: no

Ultralight Flight Park Communications

WX AWOS-3 at EZS (20 nm S): 118.65 (715-526-2967)

Nearby radio navigation aids

VOR radial/distance  VOR name  Freq  Var
MNMr262/33.1MENOMINEE VOR/DME109.6000E
GRBr343/34.0GREEN BAY VORTAC115.5001E

Ultralight Flight Park Services

Runway Information

Runway 9U/27U

Dimensions: 800 x 80 ft. / 244 x 24 m
Surface: turf, in fair condition
RUNWAY 9U  RUNWAY 27U
Traffic pattern: leftleft
Obstructions: none30 ft. pline, 400 ft. from runway

Ultralight Flight Park Ownership and Management from official FAA records

Ownership: Privately-owned
Owner: KEVIN BOWMAN
11632 STATE HWY 32
SURING, WI 54174
Phone 920-842-2353
Manager: KEVIN BOWMAN
11632 STATE HWY 32
SURING, WI 54174
Phone 920-842-2353

Ultralight Flight Park Operational Statistics

Aircraft based on the field: 2
Single engine airplanes: 1
Ultralights: 1
    

Instrument Procedures

There are no published instrument procedures at 32WN.

Some nearby airports with instrument procedures:

KEZS - Shawano Municipal Airport (20 nm S)
KOCQ - Oconto-J Douglas Bake Municipal Airport (26 nm SE)
KAIG - Langlade County Airport (29 nm W)
KCLI - Clintonville Municipal Airport (32 nm SW)
KMNM - Menominee-Marinette Twin County Airport (33 nm E)
 
Loc | Ops | Rwys | IFR | FBO | Links
Com | Nav | Svcs | Stats | Notes


 
Aerial photo
WARNING: Photo may not be current or correct
Aerial photo of 32WN (Bowman Airstrip Ultralight Flightpark)
Photo taken 03-Jul-2005
looking south.

Do you have a better or more recent aerial photo of Bowman Airstrip Ultralight Flightpark that you would like to share? If so, please send us your photo.

 
Sectional chart

 
Airport distance calculator
Flying to Bowman Airstrip Ultralight Flightpark? Find the distance to fly.

From to 32WN

Sunrise and sunset
Times for 22-Sep-2017
 Local
(UTC-5)
 Zulu
(UTC)
Morning civil twilight06:1211:12
Sunrise06:4211:42
Sunset18:5123:51
Evening civil twilight19:2000:20

Current date and time
Zulu (UTC)  22-Sep-2017 17:23:54
Local (UTC-5)  22-Sep-2017 12:23:54
 
METAR
KEZS 
20nm S 
221655Z AUTO 21007KT 170V230 10SM CLR 31/21 A3000 RMK AO2 LTG DSNT N T03130209
KOCQ 
26nm SE 
221655Z AUTO 22007KT 180V240 10SM CLR 30/22 A2999 RMK AO1 T03040215
KAIG 
31nm W 
221655Z AUTO 19009KT 10SM SCT080 27/22 A3002 RMK AO2 T02720218
KCLI 
33nm SW 
221637Z AUTO 20009G14KT 10SM CLR 31/21 A3001 RMK AO2
KMNM 
34nm E 
221656Z AUTO 22009KT 7SM CLR 29/22 A2999 RMK AO2 SLP166 T02890222 $
KGRB 
39nm S 
221653Z 22010KT 10SM CLR 30/22 A3001 RMK AO2 SLP158 T03000217
TAF
KGRB 
39nm S 
221321Z 2213/2312 18007KT P6SM FEW070 FM221700 20010G15KT P6SM FEW200 FM230100 21006KT P6SM FEW250
NOTAMs
Click for the latest NOTAMs
NOTAMs are issued by the DoD/FAA and will open in a separate window not controlled by AirNav.

 

 
 

Would you like to see your business listed on this page?

 If your business provides an interesting product or service to pilots, flight crews, aircraft, or users of the Bowman Airstrip Ultralight Flightpark, you should consider listing it here.  To start the listing process, click on the button below
 
Add a business
 

Other Pages about Bowman Airstrip Ultralight Flightpark

Update a link
 
Copyright © AirNav, LLC. All rights reserved. Privacy Policy  Contact